Crescent City, CA

11:29 PM PDT on May 24, 2017 (GMT -0700)
McNamara

Weather History for KCEC - July, 2013

Change the Weather History Date:

Monday, July 22, 2013

  Actual Average Record
Temperature  
Mean Temperature 53 °F 56 °F  
Max Temperature 56 °F 61 °F 78 °F (1954)
Min Temperature 49 °F 52 °F 45 °F (1966)
Degree Days  
Heating Degree Days 14 9  
Month to date heating degree days 198  
Since 1 June heating degree days 507  
Since 1 July heating degree days 198  
Cooling Degree Days 0 0  
Month to date cooling degree days 0  
Year to date cooling degree days 0  
Since 1 June cooling degree days 0  
Growing Degree Days 2 (Base 50)    
Moisture  
Dew Point 51 °F    
Average Humidity 93    
Maximum Humidity 100    
Minimum Humidity 86    
Precipitation  
Precipitation 0.00 in 0.01 in 1.43 in (1993)
Month to date precipitation 0.00 0.35  
Year to date precipitation 19.93 37.28  
Since 1 July precipitation 0.00  
Snow  
Snow 0.00 in - - ()
Month to date snowfall 0.0  
Since 1 June snowfall 0.0  
Since 1 July snowfall 0.0  
Snow Depth -    
Sea Level Pressure  
Sea Level Pressure 29.95 in    
Wind  
Wind Speed 5 mph (South)    
Max Wind Speed 12 mph    
Max Gust Speed 16 mph    
Visibility 3 miles    
Events Fog    
T = Trace of Precipitation, MM = Missing Value Source: NWS Daily Summary

Daily Weather History Graph

Daily Weather History Graph

Search for Another Location

Airport or City:

Trip Planner

Search our weather history database for the weather conditions in past years. The results will help you decide how hot, cold, wet, or windy it might be!

Date:

Astronomy

Jul. 22, 2013 Rise Set
Actual Time 6:01 AM PDT 8:44 PM PDT
Civil Twilight 5:29 AM PDT 9:16 PM PDT
Nautical Twilight 4:48 AM PDT 9:57 PM PDT
Astronomical Twilight 4:02 AM PDT 10:43 PM PDT
Moon 8:33 PM PDT (7/22) 6:06 AM PDT (7/22)
Length of Visible Light 15h 47m
Length of Day
14h 42m
Full, 100% of the Moon is Illuminated
Jul 22
Full
Jul 29
Last Quarter
Aug 6
New
Aug 14
First Quarter
Aug 20
Full

Hourly Weather History & Observations

Time (PDT) Temp. Dew Point Humidity Pressure Visibility Wind Dir Wind Speed Gust Speed Precip Events Conditions
12:00 AM 51.8 °F 51.8 °F 100% 29.87 in 3.0 mi Calm Calm - N/A   Overcast
12:25 AM 51.8 °F 51.8 °F 100% 29.88 in 2.5 mi Calm Calm - N/A   Overcast
12:36 AM 51.8 °F 51.8 °F 100% 29.88 in 4.0 mi ESE 3.5 mph - N/A   Overcast
12:56 AM 52.0 °F 52.0 °F 100% 29.89 in 4.0 mi SE 4.6 mph - N/A   Overcast
1:22 AM 51.8 °F 51.8 °F 100% 29.88 in 2.5 mi Calm Calm - N/A   Overcast
1:32 AM 51.8 °F 51.8 °F 100% 29.88 in 1.2 mi NNE 3.5 mph - N/A   Overcast
1:48 AM 51.8 °F 51.8 °F 100% 29.89 in 0.8 mi NNE 4.6 mph - N/A   Mist
1:56 AM 51.1 °F 51.1 °F 100% 29.89 in 0.8 mi Calm Calm - N/A   Mist
2:56 AM 51.1 °F 51.1 °F 100% 29.89 in 0.8 mi Calm Calm - N/A   Mist
3:23 AM 50.0 °F 50.0 °F 100% 29.89 in 1.0 mi Calm Calm - N/A   Mist
3:43 AM 50.0 °F 50.0 °F 100% 29.89 in 0.8 mi Calm Calm - N/A   Mist
3:56 AM 50.0 °F 50.0 °F 100% 29.90 in 0.8 mi Calm Calm - N/A   Mist
4:12 AM 50.0 °F 50.0 °F 100% 29.90 in 1.2 mi South 4.6 mph - N/A   Overcast
4:19 AM 50.0 °F 50.0 °F 100% 29.90 in 1.5 mi SSE 5.8 mph - N/A   Overcast
4:35 AM 50.0 °F 50.0 °F 100% 29.90 in 2.5 mi SE 4.6 mph - N/A   Overcast
4:56 AM 50.0 °F 50.0 °F 100% 29.91 in 2.0 mi SSE 6.9 mph - N/A   Overcast
5:10 AM 50.0 °F 50.0 °F 100% 29.91 in 5.0 mi SE 5.8 mph - N/A   Overcast
5:56 AM 48.9 °F 48.9 °F 100% 29.93 in 4.0 mi South 8.1 mph - N/A   Overcast
6:21 AM 48.2 °F 48.2 °F 100% 29.93 in 1.8 mi South 4.6 mph - N/A   Overcast
6:30 AM 48.2 °F 48.2 °F 100% 29.94 in 1.0 mi South 5.8 mph - N/A   Overcast
6:40 AM 48.2 °F 48.2 °F 100% 29.94 in 2.0 mi South 4.6 mph - N/A   Overcast
6:56 AM 48.9 °F 48.9 °F 100% 29.95 in 2.5 mi South 5.8 mph - N/A   Overcast
7:03 AM 48.2 °F 48.2 °F 100% 29.94 in 5.0 mi South 5.8 mph - N/A   Overcast
7:56 AM 50.0 °F 50.0 °F 100% 29.96 in 8.0 mi South 3.5 mph - N/A   Overcast
8:31 AM 50.0 °F 50.0 °F 100% 29.96 in 1.8 mi Calm Calm - N/A   Overcast
8:40 AM 50.0 °F 50.0 °F 100% 29.96 in 1.2 mi Calm Calm - N/A   Overcast
8:47 AM 50.0 °F 50.0 °F 100% 29.96 in 2.0 mi Calm Calm - N/A   Overcast
8:56 AM 50.0 °F 50.0 °F 100% 29.97 in 1.8 mi Calm Calm - N/A   Overcast
9:09 AM 51.8 °F 51.8 °F 100% 29.97 in 1.2 mi Calm Calm - N/A   Overcast
9:20 AM 51.8 °F 51.8 °F 100% 29.97 in 2.0 mi West 3.5 mph - N/A   Overcast
9:33 AM 51.8 °F 51.8 °F 100% 29.97 in 1.8 mi NW 3.5 mph - N/A   Overcast
9:44 AM 51.8 °F 51.8 °F 100% 29.97 in 1.2 mi WNW 3.5 mph - N/A   Overcast
9:52 AM 51.8 °F 51.8 °F 100% 29.97 in 2.0 mi Variable 3.5 mph - N/A   Overcast
9:53 AM 51.1 °F 51.1 °F 100% 29.97 in 2.0 mi NW 3.5 mph - N/A   Overcast
10:24 AM 51.8 °F 51.8 °F 100% 29.97 in 5.0 mi NNW 3.5 mph - N/A   Overcast
10:56 AM 53.1 °F 53.1 °F 100% 29.98 in 8.0 mi WNW 3.5 mph - N/A   Overcast
11:56 AM 53.1 °F 52.0 °F 96% 29.98 in 5.0 mi Variable 4.6 mph - N/A   Overcast
12:18 PM 51.8 °F 51.8 °F 100% 29.98 in 2.0 mi SW 5.8 mph - N/A   Overcast
12:30 PM 51.8 °F 51.8 °F 100% 29.98 in 5.0 mi SW 6.9 mph - N/A   Overcast
12:56 PM 53.1 °F 51.1 °F 93% 29.99 in 9.0 mi SSW 6.9 mph - N/A   Overcast
1:09 PM 53.6 °F 50.0 °F 88% 29.98 in 1.8 mi South 9.2 mph - N/A   Overcast
1:27 PM 53.6 °F 51.8 °F 94% 29.98 in 1.0 mi South 9.2 mph - N/A   Overcast
1:47 PM 53.6 °F 51.8 °F 94% 29.98 in 1.5 mi South 9.2 mph - N/A   Overcast
1:56 PM 54.0 °F 51.1 °F 90% 29.99 in 1.5 mi South 10.4 mph - N/A   Overcast
2:04 PM 53.6 °F 51.8 °F 94% 29.98 in 1.2 mi South 10.4 mph - N/A   Overcast
2:13 PM 55.4 °F 51.8 °F 88% 29.98 in 2.0 mi SSE 9.2 mph - N/A   Overcast
2:39 PM 55.4 °F 51.8 °F 88% 29.98 in 6.0 mi South 9.2 mph - N/A   Overcast
2:56 PM 55.9 °F 52.0 °F 87% 29.99 in 10.0 mi South 9.2 mph - N/A   Mostly Cloudy
3:21 PM 55.4 °F 51.8 °F 88% 29.98 in 9.0 mi South 10.4 mph - N/A   Scattered Clouds
3:29 PM 55.4 °F 51.8 °F 88% 29.97 in 7.0 mi South 9.2 mph - N/A   Mostly Cloudy
3:39 PM 55.4 °F 51.8 °F 88% 29.97 in 10.0 mi South 9.2 mph - N/A   Scattered Clouds
3:52 PM 55.4 °F 51.8 °F 88% 29.97 in 9.0 mi South 8.1 mph - N/A   Mostly Cloudy
3:56 PM 55.0 °F 52.0 °F 89% 29.97 in 9.0 mi South 8.1 mph - N/A   Mostly Cloudy
4:33 PM 53.6 °F 51.8 °F 94% 29.96 in 1.8 mi South 8.1 mph - N/A   Overcast
4:48 PM 53.6 °F 51.8 °F 94% 29.96 in 4.0 mi South 6.9 mph - N/A   Overcast
4:56 PM 54.0 °F 51.1 °F 90% 29.96 in 8.0 mi South 6.9 mph - N/A   Overcast
5:12 PM 51.8 °F 50.0 °F 94% 29.95 in 1.8 mi South 5.8 mph - N/A   Overcast
5:36 PM 51.8 °F 50.0 °F 94% 29.94 in 3.0 mi SSW 4.6 mph - N/A   Overcast
5:41 PM 51.8 °F 51.8 °F 100% 29.94 in 1.5 mi South 5.8 mph - N/A   Overcast
5:48 PM 51.8 °F 50.0 °F 94% 29.94 in 1.2 mi South 4.6 mph - N/A   Overcast
5:56 PM 52.0 °F 50.0 °F 93% 29.94 in 1.0 mi South 5.8 mph - N/A   Overcast
6:11 PM 51.8 °F 51.8 °F 100% 29.93 in 2.0 mi South 5.8 mph - N/A   Overcast
6:27 PM 51.8 °F 50.0 °F 94% 29.93 in 4.0 mi South 6.9 mph - N/A   Overcast
6:30 PM 51.8 °F 50.0 °F 94% 29.93 in 1.5 mi South 6.9 mph - N/A   Overcast
6:34 PM 51.8 °F 50.0 °F 94% 29.93 in 0.8 mi South 8.1 mph - N/A   Overcast
6:48 PM 51.8 °F 50.0 °F 94% 29.93 in 1.5 mi South 6.9 mph - N/A   Mostly Cloudy
6:56 PM 51.1 °F 50.0 °F 96% 29.94 in 1.8 mi South 6.9 mph - N/A   Mostly Cloudy
7:05 PM 51.8 °F 50.0 °F 94% 29.94 in 1.0 mi South 6.9 mph - N/A   Mist
7:13 PM 51.8 °F 50.0 °F 94% 29.94 in 2.0 mi SSE 5.8 mph - N/A   Overcast
7:21 PM 51.8 °F 50.0 °F 94% 29.94 in 6.0 mi SSE 6.9 mph - N/A   Overcast
7:27 PM 51.8 °F 50.0 °F 94% 29.95 in 1.8 mi SSE 6.9 mph - N/A   Overcast
7:34 PM 51.8 °F 50.0 °F 94% 29.95 in 0.8 mi SSE 8.1 mph - N/A   Overcast
7:56 PM 51.1 °F 50.0 °F 96% 29.96 in 0.8 mi SSE 6.9 mph - N/A   Overcast
8:09 PM 51.8 °F 50.0 °F 94% 29.95 in 1.2 mi SSE 5.8 mph - N/A   Overcast
8:22 PM 51.8 °F 50.0 °F 94% 29.95 in 2.0 mi SE 4.6 mph - N/A   Overcast
8:32 PM 51.8 °F 50.0 °F 94% 29.96 in 4.0 mi SSE 4.6 mph - N/A   Overcast
8:43 PM 51.8 °F 50.0 °F 94% 29.96 in 1.8 mi SE 4.6 mph - N/A   Overcast
8:53 PM 51.8 °F 50.0 °F 94% 29.96 in 3.0 mi SE 4.6 mph - N/A   Overcast
8:56 PM 50.0 °F 50.0 °F 100% 29.96 in 6.0 mi SE 4.6 mph - N/A   Mostly Cloudy
9:06 PM 50.0 °F 50.0 °F 100% 29.96 in 1.8 mi SE 4.6 mph - N/A   Mostly Cloudy
9:14 PM 50.0 °F 50.0 °F 100% 29.96 in 1.0 mi ESE 4.6 mph - N/A   Mist
9:28 PM 50.0 °F 50.0 °F 100% 29.97 in 2.0 mi Calm Calm - N/A   Overcast
9:37 PM 50.0 °F 50.0 °F 100% 29.97 in 8.0 mi Calm Calm - N/A   Mostly Cloudy
9:48 PM 50.0 °F 50.0 °F 100% 29.97 in 10.0 mi SE 3.5 mph - N/A   Scattered Clouds
9:56 PM 50.0 °F 50.0 °F 100% 29.98 in 10.0 mi Calm Calm - N/A   Partly Cloudy
10:32 PM 48.2 °F 48.2 °F 100% 29.99 in 1.5 mi Calm Calm - N/A   Mostly Cloudy
10:34 PM 48.2 °F 48.2 °F 100% 29.99 in 0.5 mi Calm Calm - N/A Fog Fog
10:56 PM 50.0 °F 50.0 °F 100% 29.99 in 0.2 mi Calm Calm - N/A Fog Fog
11:56 PM 50.0 °F 50.0 °F 100% 30.00 in 0.2 mi South 3.5 mph - 0.01 in Fog Fog